{"data":{"norad_id":62797,"intl_designator":"2025-016N","name":"QIANFAN-67","alt_names":[],"object_type":"PAYLOAD","status":"ACTIVE","operator":null,"country":"PRC","launch_date":"2025-01-23","launch_site_code":"TAISC","launch_vehicle":null,"mission":null,"orbit_class":"UNKNOWN","rcs_meters":null,"size_class":null,"mass_kg":null,"dimensions":null,"purposes":[],"wikipedia_slug":null,"has_3d_model":false,"image_url":null,"decayed_at":null,"tle_current":{"epoch":"2026-05-25T03:32:04.161696Z","epoch_age_seconds":65532,"freshness":"FRESH","line1":"1 62797U 25016N   26145.14727039  .00000112  00000+0  15536-3 0  9992","line2":"2 62797  88.9726  86.0956 0012899 229.3795 130.6235 13.51013696 69328","mean_motion":13.51013696,"eccentricity":0.0012899,"inclination_deg":88.9726,"raan_deg":86.0956,"arg_perigee_deg":229.3795,"mean_anomaly_deg":130.6235,"bstar":0.00015536,"rev_number":6932,"period_min":106.58663226461,"perigee_km":1058.925800006,"apogee_km":1078.1367147764,"semimajor_km":7446.6682573912,"source":"CELESTRAK","updated_at":"2026-05-25T13:38:03.276974Z"}}}